• In Hungary
  • List of Countries
  • For 7 days
  • Water Temperature
  • Satellite Maps
  • Weather Map
  • News
  • Weather Widgets
  • user-avatar
    Login

    Hourly Weather Obolenki

    Today, 19 June, Tuesday

    Time Temperature Precipitation Wind Pressure Humidity
    00:00 +18°C° 0 mm 2 mps 748 mmHg 68%
    01:00 +17°C° 0 mm 2 mps 748 mmHg 70%
    02:00 +17°C° 0 mm 2 mps 748 mmHg 71%
    03:00 +16°C° 0 mm 2 mps 748 mmHg 73%
    04:00 +17°C° 0 mm 2 mps 748 mmHg 74%
    05:00 +17°C° 0 mm 2 mps 748 mmHg 76%
    06:00 +18°C° 0 mm 2 mps 749 mmHg 77%
    07:00 +19°C° 0 mm 2 mps 749 mmHg 74%
    08:00 +21°C° 0 mm 2 mps 749 mmHg 70%
    09:00 +24°C° 0 mm 2 mps 748 mmHg 66%
    10:00 +24°C° 0.3 mm 3 mps 748 mmHg 66%
    11:00 +25°C° 0.3 mm 3 mps 748 mmHg 65%
    12:00 +26°C° 0.3 mm 4 mps 748 mmHg 65%
    13:00 +26°C° 0.6 mm 4 mps 747 mmHg 67%
    14:00 +25°C° 0.6 mm 4 mps 747 mmHg 70%
    15:00 +25°C° 0.6 mm 4 mps 747 mmHg 72%
    16:00 +25°C° 0.6 mm 4 mps 747 mmHg 74%
    17:00 +25°C° 0.6 mm 4 mps 746 mmHg 76%
    18:00 +25°C° 0.6 mm 4 mps 746 mmHg 77%
    19:00 +22°C° 0.1 mm 4 mps 746 mmHg 82%
    20:00 +21°C° 0.1 mm 4 mps 746 mmHg 86%
    21:00 +20°C° 0.1 mm 3 mps 746 mmHg 91%
    22:00 +19°C° 0 mm 4 mps 746 mmHg 91%
    23:00 +19°C° 0 mm 4 mps 746 mmHg 92%

    Tomorrow, 20 June, Wednesday

    Time Temperature Precipitation Wind Pressure Humidity
    00:00 +19°C° 0 mm 4 mps 745 mmHg 92%
    01:00 +18°C° 0 mm 4 mps 745 mmHg 93%
    02:00 +18°C° 0 mm 4 mps 745 mmHg 93%
    03:00 +18°C° 0 mm 4 mps 745 mmHg 94%
    04:00 +18°C° 0 mm 4 mps 745 mmHg 92%
    05:00 +18°C° 0 mm 4 mps 745 mmHg 91%
    06:00 +19°C° 0 mm 5 mps 745 mmHg 90%
    07:00 +19°C° 0 mm 5 mps 746 mmHg 84%
    08:00 +20°C° 0 mm 6 mps 746 mmHg 79%
    09:00 +21°C° 0 mm 6 mps 746 mmHg 74%
    10:00 +21°C° 0 mm 6 mps 746 mmHg 69%
    11:00 +22°C° 0 mm 6 mps 746 mmHg 64%
    12:00 +22°C° 0 mm 6 mps 747 mmHg 60%
    13:00 +22°C° 0 mm 6 mps 747 mmHg 58%
    14:00 +22°C° 0 mm 6 mps 747 mmHg 56%
    15:00 +22°C° 0 mm 6 mps 747 mmHg 54%
    16:00 +22°C° 0 mm 5 mps 747 mmHg 58%
    17:00 +22°C° 0 mm 4 mps 747 mmHg 62%
    18:00 +22°C° 0 mm 4 mps 747 mmHg 65%
    19:00 +20°C° 0 mm 3 mps 747 mmHg 69%
    20:00 +18°C° 0 mm 3 mps 747 mmHg 74%
    21:00 +17°C° 0 mm 3 mps 747 mmHg 78%
    22:00 +16°C° 0 mm 3 mps 747 mmHg 80%
    23:00 +16°C° 0 mm 3 mps 748 mmHg 82%

    Day after tomorrow, 21 June, Thursday

    Time Temperature Precipitation Wind Pressure Humidity
    00:00 +14°C° 0 mm 3 mps 748 mmHg 83%
    01:00 +14°C° 0 mm 3 mps 748 mmHg 86%
    02:00 +14°C° 0 mm 3 mps 748 mmHg 88%
    03:00 +13°C° 0 mm 3 mps 748 mmHg 90%
    04:00 +14°C° 0 mm 3 mps 748 mmHg 89%
    05:00 +14°C° 0 mm 3 mps 748 mmHg 87%
    06:00 +16°C° 0 mm 3 mps 748 mmHg 86%
    07:00 +17°C° 0 mm 3 mps 748 mmHg 81%
    08:00 +19°C° 0 mm 3 mps 748 mmHg 75%
    09:00 +21°C° 0 mm 3 mps 748 mmHg 70%
    10:00 +22°C° 0 mm 4 mps 748 mmHg 66%
    11:00 +22°C° 0 mm 4 mps 748 mmHg 62%
    12:00 +23°C° 0 mm 4 mps 748 mmHg 58%
    13:00 +25°C° 0 mm 4 mps 747 mmHg 58%
    14:00 +25°C° 0 mm 4 mps 747 mmHg 58%
    15:00 +25°C° 0 mm 4 mps 747 mmHg 58%
    16:00 +25°C° 0 mm 4 mps 747 mmHg 61%
    17:00 +25°C° 0 mm 3 mps 747 mmHg 64%
    18:00 +25°C° 0 mm 3 mps 747 mmHg 67%
    19:00 +23°C° 0 mm 2 mps 747 mmHg 73%
    20:00 +21°C° 0 mm 2 mps 747 mmHg 78%
    21:00 +19°C° 0 mm 2 mps 747 mmHg 83%
    22:00 +18°C° 0 mm 2 mps 747 mmHg 84%
    23:00 +18°C° 0 mm 2 mps 747 mmHg 86%

    22 June, Friday

    Time Temperature Precipitation Wind Pressure Humidity
    00:00 +17°C° 0 mm 2 mps 748 mmHg 87%
    01:00 +17°C° 0 mm 2 mps 748 mmHg 88%
    02:00 +16°C° 0 mm 2 mps 747 mmHg 89%
    03:00 +16°C° 0 mm 2 mps 747 mmHg 90%
    04:00 +17°C° 0 mm 2 mps 747 mmHg 89%
    05:00 +17°C° 0 mm 2 mps 747 mmHg 88%
    06:00 +18°C° 0 mm 3 mps 747 mmHg 87%
    07:00 +20°C° 0 mm 3 mps 747 mmHg 82%
    08:00 +21°C° 0 mm 4 mps 747 mmHg 77%
    09:00 +23°C° 0 mm 4 mps 747 mmHg 72%
    10:00 +25°C° 0 mm 5 mps 747 mmHg 69%
    11:00 +26°C° 0 mm 5 mps 747 mmHg 65%
    12:00 +27°C° 0 mm 5 mps 746 mmHg 62%
    13:00 +27°C° 0 mm 5 mps 746 mmHg 62%
    14:00 +27°C° 0 mm 5 mps 746 mmHg 62%
    15:00 +28°C° 0 mm 6 mps 746 mmHg 61%
    16:00 +27°C° 0 mm 5 mps 745 mmHg 65%
    17:00 +27°C° 0 mm 5 mps 745 mmHg 68%
    18:00 +27°C° 0 mm 4 mps 745 mmHg 71%
    19:00 +25°C° 0 mm 4 mps 745 mmHg 76%
    20:00 +23°C° 0 mm 4 mps 745 mmHg 80%
    21:00 +21°C° 0 mm 4 mps 744 mmHg 85%
    22:00 +21°C° 0 mm 4 mps 744 mmHg 86%
    23:00 +20°C° 0 mm 4 mps 744 mmHg 87%

    23 June, Saturday

    Time Temperature Precipitation Wind Pressure Humidity
    00:00 +20°C° 0 mm 4 mps 744 mmHg 88%
    01:00 +20°C° 0 mm 4 mps 744 mmHg 87%
    02:00 +19°C° 0 mm 4 mps 744 mmHg 87%
    03:00 +19°C° 0 mm 4 mps 744 mmHg 86%
    04:00 +19°C° 0 mm 4 mps 744 mmHg 86%
    05:00 +20°C° 0 mm 4 mps 743 mmHg 86%
    06:00 +20°C° 0 mm 4 mps 743 mmHg 86%
    07:00 +20°C° 0.1 mm 4 mps 743 mmHg 85%
    08:00 +21°C° 0.1 mm 4 mps 743 mmHg 84%
    09:00 +22°C° 0.1 mm 4 mps 743 mmHg 83%
    10:00 +23°C° 0.4 mm 4 mps 743 mmHg 80%
    11:00 +25°C° 0.4 mm 5 mps 743 mmHg 78%
    12:00 +26°C° 0.4 mm 5 mps 743 mmHg 75%
    13:00 +26°C° 0.6 mm 5 mps 743 mmHg 74%
    14:00 +26°C° 0.6 mm 5 mps 743 mmHg 74%
    15:00 +27°C° 0.6 mm 5 mps 743 mmHg 73%
    16:00 +26°C° 1.3 mm 5 mps 742 mmHg 77%
    17:00 +25°C° 1.3 mm 5 mps 742 mmHg 81%
    18:00 +23°C° 1.3 mm 4 mps 742 mmHg 85%
    19:00 +22°C° 0.9 mm 4 mps 742 mmHg 87%
    20:00 +21°C° 0.9 mm 3 mps 742 mmHg 88%
    21:00 +20°C° 0.9 mm 3 mps 742 mmHg 90%
    22:00 +20°C° 0.2 mm 3 mps 742 mmHg 91%
    23:00 +19°C° 0.2 mm 3 mps 742 mmHg 93%

    24 June, Sunday

    Time Temperature Precipitation Wind Pressure Humidity
    00:00 +19°C° 0.2 mm 3 mps 743 mmHg 95%
    01:00 +18°C° 0.5 mm 3 mps 743 mmHg 95%
    02:00 +17°C° 0.5 mm 3 mps 743 mmHg 96%
    03:00 +17°C° 0.5 mm 3 mps 743 mmHg 96%
    04:00 +15°C° 0.1 mm 4 mps 744 mmHg 96%
    05:00 +14°C° 0.1 mm 4 mps 744 mmHg 95%
    06:00 +14°C° 0.1 mm 4 mps 744 mmHg 95%
    07:00 +14°C° 0.1 mm 4 mps 745 mmHg 94%
    08:00 +14°C° 0.1 mm 4 mps 745 mmHg 92%
    09:00 +14°C° 0.1 mm 4 mps 745 mmHg 91%
    10:00 +14°C° 0 mm 4 mps 746 mmHg 87%
    11:00 +15°C° 0 mm 4 mps 746 mmHg 84%
    12:00 +15°C° 0 mm 4 mps 747 mmHg 81%
    13:00 +17°C° 0 mm 4 mps 747 mmHg 77%
    14:00 +18°C° 0 mm 4 mps 747 mmHg 73%
    15:00 +18°C° 0 mm 3 mps 747 mmHg 69%
    16:00 +19°C° 0 mm 3 mps 747 mmHg 68%
    17:00 +19°C° 0 mm 2 mps 748 mmHg 67%
    18:00 +21°C° 0 mm 1 mps 748 mmHg 66%
    19:00 +19°C° 0 mm 1 mps 748 mmHg 71%
    20:00 +18°C° 0 mm 1 mps 748 mmHg 75%
    21:00 +16°C° 0 mm 1 mps 748 mmHg 80%
    22:00 +15°C° 0 mm 1 mps 748 mmHg 80%
    23:00 +15°C° 0 mm 1 mps 749 mmHg 81%
    Show more